Regional Weather Roundup
Issued by NWS Mobile, AL

Home | Current Version | Previous Version | Text Only | Print | Product List | Glossary On
Versions: 1 2 3 4 5 6 7 8 9 10 11 12 13 14 15 16 17 18 19 20 21 22 23 24 25 26 27 28 29 30 31 32 33 34 35 36 37 38 39 40 41 42 43 44 45 46 47 48 49 50
000
ASUS44 KMOB 080216
RWRMOB
REGIONAL WEATHER ROUNDUP
NATIONAL WEATHER SERVICE MOBILE AL
900 PM CDT TUE JUL 07 2015

ALZ061>064-080300-
COASTAL ALABAMA


CITY           SKY/WX    TMP DP  RH WIND       PRES   REMARKS
MOBILE REG APT PTCLDY    79  75  87 SW6       30.15R
BROOKLEY FIELD CLEAR     79  74  84 CALM      30.14R
GULF SHORES    CLEAR     79  74  84 CALM      30.14R

$$

ALZ051>060-080300-
INTERIOR SOUTHWEST AND SOUTH CENTRAL ALABAMA


CITY           SKY/WX    TMP DP  RH WIND       PRES   REMARKS
ANDALUSIA/OPP  CLEAR     82  69  64 CALM      30.14R
EVERGREEN      CLEAR     78  70  76 S3        30.14R
FLORALA        PTCLDY    77  71  82 CALM      30.16R
GREENVILLE     FAIR      80  76  87 CALM      30.13R

$$

FLZ001>006-080300-
WESTERN FLORIDA PANHANDLE


CITY           SKY/WX    TMP DP  RH WIND       PRES   REMARKS
CRESTVIEW      PTCLDY    83  74  74 SW5       30.14S
DESTIN         PTCLDY    85  76  74 VRB3      30.13R
DUKE FIELD     PTCLDY    83  73  70 SW6       30.13R
MARY ESTHER    PTCLDY    83  74  73 W1        30.12R
MILTON         PTCLDY    82  75  79 CALM      30.14R
PENSACOLA      CLEAR     82  74  76 W8        30.13R
NAS PENSACOLA  CLEAR     79  73  82 W3        30.13R
VALPARAISO     PTCLDY    83  74  75 W2        30.13R

$$

...MARINE OBSERVATIONS...

STATION/POSITION TIME  SKY/WX   TEMP    WIND        PRES    VSBY
                                AIR SEA DIR/SP/G
                 (UTC)          (F)     (DEG/KT/KT) (MB)    (MI)
PASCAGOULA       0100            85     180/ 10/ 12 1019.9R
PETIT BOIS ISL   0100            85     180/  9/ 11 1020.5R
E DAUPHIN ISLAND 0200            84     190/  5/  7 1020.2R
MIDDLE BAY LIGHT 0100            83     210/ 12     1019.6S
USCG MOBILE BAY  0100            83 85  220/  3/  6 1019.0R
STATE DOCKS      0100            85 86              1019.7R
MEAHER PARK      0200            84     220/ 10     1019.6R
FORT MORGAN      0100            84     220/  9/ 11 1019.7R
12 S ORANGE BCH  0150            85 86  210/  6/  8 1019.7R
WVE H/P(F/S)=  1/ 6

PENSACOLA BAY    0100            85 84  230/  7/ 10 1020.2R
64 S DAUPHIN ISL 0150            85 87  160/  8/ 10 1020.7R
WVE H/P(F/S)=  2/ 6

67 S FORT MORGAN 0130                   160/  8       N/A
115 SE PENSACOLA 0150            83 86  170/  4/  4 1020.7R
WVE H/P(F/S)=  1/10

MID GULF/42001   0150            84 86  110/  8/ 12 1019.7R
WVE H/P(F/S)=  2/ 7

EAST GULF/42003  0150            85 86   80/  8/  8 1019.2R
WVE H/P(F/S)=  2/10


$$

...NEARBY LOCATIONS

CITY           SKY/WX    TMP DP  RH WIND       PRES   REMARKS
GULFPORT       CLEAR     84  74  71 S7        30.12R
BILOXI         CLEAR     84  74  70 S10       30.12S
PASCAGOULA     CLEAR     81  75  82 S3        30.13R
HATTIESBURG    PTCLDY    78  69  73 S3        30.12R
LAUREL         PTCLDY    77 N/A N/A S3        30.13R
MERIDIAN       PTCLDY    78  76  93 CALM      30.11R
MERIDIAN NAS   PTCLDY    77  75  93 CALM      30.11R
MONTGOMERY     PTCLDY    83  74  74 S5        30.12R
MAXWELL AFB    NOT AVBL
TROY           CLEAR     80  76  87 CALM      30.15R
FORT RUCKER    CLEAR     78  75  90 CALM      30.13R
DALEVILLE      CLEAR     82  72  71 SW2       30.14R
DOTHAN         CLEAR     81  75  82 CALM      30.17R

$$

...OTHER SURROUNDING LOCATIONS...

CITY           SKY/WX    TMP DP  RH WIND       PRES   REMARKS
BIRMINGHAM     MOCLDY    84  72  67 S5        30.14R
TUSCALOOSA     PTCLDY    79  67  66 SW3       30.11R
COLUMBUS GA    CLEAR     84  70  62 W3        30.13R
PANAMA CITY    NOT AVBL
TALLAHASSEE    PTCLDY    83  72  69 CALM      30.13R
BATON ROUGE    PTCLDY    77  71  82 E5        30.08R
NEW ORLEANS    PTCLDY    84  74  71 SE10      30.09R
SLIDELL        CLEAR     83  74  74 SE6       30.10R
JACKSON        MOCLDY    78  68  71 CALM      30.08F
MCCOMB         CLOUDY    74  69  85 SW6       30.10R

$$

...SURROUNDING MARINE OBSERVATIONS...

STATION/POSITION TIME  SKY/WX   TEMP    WIND        PRES    VSBY
                                AIR SEA DIR/SP/G
                 (UTC)          (F)     (DEG/KT/KT) (MB)    (MI)
WAVELAND         0100            85 87  170/ 11/ 13 1020.0R
PASCAGOULA RGN A 0100            86     190/ 10/ 12 1019.6R
PASCAGOULA PORT  0100               87                N/A
GRAND ISLE       0100            85 89  150/  6/  8 1019.4F
SOUTHWEST PASS   0200            85     150/ 10/ 11 1020.0R
PILOT STATION E  0100            85 83  160/  8/ 10 1020.0S
SHELL BEACH      0100            84 86  170/  6/  8 1018.9R
PANAMA CITY      0100            84 87  280/  8/  9 1019.6R
APALACHICOLA     0100            83 87  280/  3/  5 1020.0R
TYNDALL TOWER C  0200            83     250/  4/  5 1020.4R
S APLCHCLA/42036 0150            84 86     CALM     1020.4R
WVE H/P(F/S)=  1/ 9


$$



USA.gov is the U.S. government's official web portal to all federal, state and local government web resources and services.